Location: Hamayl? Da??
(36.7028°N, 30.1716°E)
Time: 05:56:19
(UTC+00:00)

Cosmos 2123 Rocket - Pass Details

Date: 04 August 2024
Orbit: 961 x 991 km, 82.9° (Epoch: 10 September)

Event Time Altitude Azimuth Distance (km) Brightness Sun altitude
Rises 19:14:01 0° 351° (N) 3,710 7.9 -22.8°
Reaches altitude 10° 19:16:32 10° 351° (N) 2,759 7.1 -23.2°
Maximum altitude 19:22:52 78° 266° (W) 1,014 4.1 -24.1°
Enters shadow 19:25:23 39° 187° (S) 1,439 4.5 -24.4°
